Flag for Switzerland Weather past 2 weeks in Zug, Zug, Switzerland

Now
58 °F

Refreshingly cool.


Feels Like: 58 °F
Forecast: 38 / 64 °F
Wind: 5 mph from East

Location: Zurich Town / Ville.

Current Time: May 22, 2015 at 7:00:08 PM

Latest Report: May 22, 2015 at 6:00 PM


Visibility: N/A

Pressure: 30.15 "Hg

Humidity: 52%

Dew point: 41 °F

Location of ZugLocation

Historic Weather in Zug — Graph

°F

Zug temperature yesterday

Maximum temperature yesterday: 50 °F (at 1:00 PM)
Minimum temperature yesterday: 41 °F (at 1:00 AM)
Average temperature yesterday: 45 °F

Past Weeks' High & Low Weather Summary

 TemperatureHumidityPressure
High81 °F (May 12, 3:00 PM)97% (May 15, 5:00 PM)30.37 "Hg (May 15, 5:00 PM)
Low41 °F (May 21, 1:00 AM)29% (May 12, 3:00 PM)29.71 "Hg (May 18, 7:00 PM)
Average57 °F71%30.09 "Hg
* Reported May 7 5:00 PM — May 22 5:00 PM, Zug, Weather by CustomWeather, © 2015

Note: Actual official high and low records may vary slightly from our data, if they occured in-between our weather recording intervals... More about our weather records

Advertising

Zug weather history for previous 24 hours

 ConditionsComfort  
Time TempWeatherWind HumidityBarometerVisibility
5:00 PM
Fri, May 22
56 °FRefreshingly cool.5 mph58%30.17 "HgN/A
4:00 PM58 °FRefreshingly cool.9 mph52%30.17 "HgN/A
3:00 PM56 °FCool.8 mph61%30.20 "HgN/A
2:00 PM57 °FOvercast.6 mph64%30.21 "HgN/A
1:00 PM56 °FRefreshingly cool.8 mph56%30.22 "HgN/A
12:00 PM54 °FCool.6 mph64%30.25 "HgN/A
11:00 AM53 °FCool.6 mph70%30.26 "HgN/A
10:00 AM51 °FCool.6 mph71%30.27 "HgN/A
9:00 AM47 °FCool.5 mph77%30.29 "HgN/A
8:00 AM45 °FCool.3 mph90%30.31 "HgN/A
7:00 AM44 °FQuite cool.2 mph92%30.31 "HgN/A
6:00 AM45 °FCool.1 mph95%30.30 "HgN/A
5:00 AM45 °FCool.2 mph96%30.31 "HgN/A
4:00 AM45 °FCool.3 mph95%30.32 "HgN/A
3:00 AM45 °FCool.2 mph94%30.33 "HgN/A
2:00 AM46 °FCool.1 mph93%30.33 "HgN/A
1:00 AM46 °FCool.1 mph92%30.33 "HgN/A
12:00 AM46 °FCool.1 mph90%30.34 "HgN/A
11:00 PM
Thu, May 21
46 °FCool.2 mph91%30.34 "HgN/A
10:00 PM46 °FCool.2 mph88%30.33 "HgN/A
9:00 PM47 °FCool.1 mph88%30.32 "HgN/A
8:00 PM48 °FOvercast.2 mph83%30.30 "HgN/A
7:00 PM48 °FCool.3 mph82%30.29 "HgN/A
Weather by CustomWeather, © 2015

See weather overviewHow to use our weather pages